Tracking 17857 objects as of 30-September-2016
HD Live streaming from Space Station
objects crossing your sky now

ASTRA 1D

Track ASTRA 1D now!
ASTRA 1D is classified as:


NORAD ID: 23331
Int'l Code: 1994-070A
Perigee: 35,778.6 km
Apogee: 35,809.4 km
Inclination: 7.2 °
Period: 1,436.1 minutes
Semi major axis: 42164 km
RCS: 75.2376 m2 (large)
Launch date: November 1, 1994
Source: Luxembourg (LUXE)
Launch site: FRENCH GUIANA (FRGUI)

Primarily backup for Astra 1B and 1C; 18 Ku-band transponders; continental Europe.
Your satellite tracking list
Your tracking list is empty





NASA's NSSDC Master Catalog

Two Line Element Set (TLE):
1 23331U 94070A   16273.36448389 -.00000305  00000-0  00000+0 0  9994
2 23331   7.1587  51.2124 0003655 139.4251 261.8490  1.00270909 80591
Source of the keplerian elements: AFSPC

N2YO: 944